Regional Weather Roundup
Issued by NWS

Home | Current Version | Previous Version | Text Only | Print | Product List | Glossary Off
Versions: 1 2 3 4 5 6 7 8 9 10 11 12 13 14 15 16 17 18 19 20 21 22 23 24 25 26 27 28 29 30 31 32 33 34 35 36 37 38 39 40 41 42 43 44 45 46 47 48 49 50

000
ASUS43 KOAX 310110
RWRNE

WEATHER ROUNDUP FOR NEBRASKA
NATIONAL WEATHER SERVICE OMAHA NE
800 PM CDT SUN AUG 30 2015

NOTES: SATELLITE DATA IS BEING USED TO AUGMENT CLOUD COVER ABOVE
       12000 FEET.
       "FAIR" INDICATES FEW OR NO CLOUDS BELOW 12,000 FEET WITH NO
       SIGNIFICANT WEATHER AND/OR OBSTRUCTIONS TO VISIBILITY.

  * THESE STATIONS DO NOT REPORT WEATHER SUCH AS RAIN...SNOW OR FOG.

NEZ001>004-019>022-054>056-310200-
NEBRASKA PANHANDLE

CITY           SKY/WX    TMP DP  RH WIND       PRES   REMARKS
SCOTTSBLUFF    PTCLDY    85  59  41 E6        29.82F
ALLIANCE       CLEAR     84  47  27 S9        29.82F
CHADRON        PTCLDY    90  43  19 S12       29.75S
KIMBALL        PTCLDY    82  39  21 S9        29.91S
SIDNEY         CLEAR     89  48  24 S16       29.89S
$$

NEZ057>060-069>072-079>082-310200-
SOUTHWEST NEBRASKA

CITY           SKY/WX    TMP DP  RH WIND       PRES   REMARKS
NORTH PLATTE   CLEAR     80  43  26 SE8       29.88S
IMPERIAL       CLEAR     86  38  18 S16       29.89F
LEXINGTON      CLEAR     77  62  58 SE12      29.92S
MCCOOK         CLEAR     84  41  21 S10       29.90S HAZE
OGALLALA       CLEAR     85  43  22 S14G21    29.86S
$$

NEZ005>010-023>029-035>040-094-310200-
NORTH CENTRAL NEBRASKA

CITY           SKY/WX    TMP DP  RH WIND       PRES   REMARKS
VALENTINE      PTCLDY    88  41  19 S18G29    29.78F
AINSWORTH      PTCLDY    83  56  38 S15       29.83F
BROKEN BOW     CLEAR     78  63  59 S14       29.90F
O`NEILL        PTCLDY    75  67  74 S15G24    29.88S
ORD            CLEAR     76  62  62 SE12G18   29.90S
THEDFORD       CLEAR     84  54  35 S15G24    29.87S
$$

NEZ041-046>049-061>064-073>077-083>087-310200-
SOUTH CENTRAL NEBRASKA

CITY           SKY/WX    TMP DP  RH WIND       PRES   REMARKS
GRAND ISLAND   CLEAR     72  64  76 SE12      29.94F
AURORA         CLEAR     70  66  88 SE7       29.95F
HASTINGS       CLEAR     73  64  73 SE12      29.95F
HEBRON         CLEAR     71  64  76 S3        29.96F
HOLDREGE       CLEAR     73  60  65 SE12      29.93F
KEARNEY *      CLEAR     72  61  68 SE9       29.94S
YORK           PTCLDY    72  66  83 S8        29.96S
$$

NEZ011>018-030>034-042>045-310200-
NORTHEAST NEBRASKA

CITY           SKY/WX    TMP DP  RH WIND       PRES   REMARKS
NORFOLK        PTCLDY    71  67  87 SE9       29.92F
ALBION         CLEAR     71  65  82 SE7       29.93S
BLAIR          CLEAR     70  65  86 S5        29.96S
COLUMBUS *     PTCLDY   N/A N/A N/A S6        29.94S
FREMONT        PTCLDY    71  66  85 SE6       29.96S
TEKAMAH        PTCLDY    69  67  93 S6        29.94F
WAYNE          PTCLDY    70  67  91 S7        29.93S
$$

NEZ050>053-065>068-078-088>093-310200-
SOUTHEAST NEBRASKA

CITY           SKY/WX    TMP DP  RH WIND       PRES   REMARKS
LINCOLN        CLEAR     72  67  84 S5        29.96F
OMAHA EPPLEY   PTCLDY    74  67  78 S8        29.95F
BEATRICE       CLEAR     74  67  76 CALM      29.96S
FALLS CITY     CLEAR     73  69  87 N3        29.95S
NEBRASKA CITY  CLEAR     73  67  81 SE3       29.96F
PLATTSMOUTH    CLEAR     71  66  85 SE5       29.96F
$$

NEZ044-045-051>053-067-310200-
OMAHA AREA

CITY           SKY/WX    TMP DP  RH WIND       PRES   REMARKS
OMAHA EPPLEY   PTCLDY    74  67  78 S8        29.95F
BLAIR          CLEAR     70  65  86 S5        29.96S
FREMONT        PTCLDY    71  66  85 SE6       29.96S
MILLARD        CLEAR     72  68  87 CALM      29.95F
OFFUTT AFB     CLEAR     70  67  92 SE3       29.95F
PLATTSMOUTH    CLEAR     71  66  85 SE5       29.96F
WAHOO          FAIR      69  66  92 SE6       29.95F
$$




USA.gov is the U.S. government's official web portal to all federal, state and local government web resources and services.